EW6664 Weather Reports


time (UTC)temp
F
wind
direction
speed
knots
gust
knots
rain 1hr
in
rain 24hr
in
rain mn
in
humidity
%
barometer
mb
20260507182149 53 0 2.6 5.2 0.00 0.00 0.00 40 1007.6
20260507181645 54 269 2.6 7.0 0.00 0.00 0.00 41 1007.6
20260507181142 53 8 5.2 7.8 0.00 0.00 0.00 41 1007.5
20260507180638 53 315 3.5 5.2 0.00 0.00 0.00 41 1007.4
20260507180136 54 278 2.6 6.1 0.00 0.00 0.00 42 1007.5
20260507175631 53 304 5.2 7.0 0.00 0.00 0.00 42 1007.5
20260507175124 53 127 1.7 6.1 0.00 0.00 0.00 40 1007.5
20260507174620 53 244 4.3 7.0 0.00 0.00 0.00 38 1007.6
20260507174119 53 307 3.5 6.1 0.00 0.00 0.00 42 1007.5
20260507173615 53 353 1.7 6.1 0.00 0.00 0.00 41 1007.8
20260507173112 53 26 3.5 6.1 0.00 0.00 0.00 42 1007.6
20260507172608 53 282 3.5 8.7 0.00 0.00 0.00 42 1007.6
20260507172106 53 267 4.3 7.0 0.00 0.00 0.00 42 1007.8
20260507171601 53 301 5.2 7.8 0.00 0.00 0.00 41 1007.6
20260507171058 53 306 4.3 7.0 0.00 0.00 0.00 43 1007.4
20260507170555 52 202 2.6 3.5 0.00 0.00 0.00 52 1007.6
20260507170052 52 161 4.3 6.1 0.00 0.00 0.00 44 1007.8
20260507165547 53 302 3.5 7.0 0.00 0.00 0.00 45 1007.8
20260507165044 53 304 4.3 7.0 0.00 0.00 0.00 42 1007.7
20260507164540 52 336 1.7 2.6 0.00 0.00 0.00 47 1007.8
20260507164037 50 223 4.3 5.2 0.00 0.00 0.00 49 1007.6
20260507163534 50 301 7.0 9.6 0.00 0.00 0.00 44 1007.9
20260507163032 51 321 5.2 7.8 0.00 0.00 0.00 50 1008.0
20260507162532 51 29 2.6 6.1 0.00 0.00 0.00 49 1008.0
20260507162029 51 302 3.5 7.0 0.00 0.00 0.00 48 1008.0
20260507161526 50 308 3.5 6.1 0.00 0.00 0.00 46 1008.4
20260507161023 50 276 3.5 7.8 0.00 0.00 0.00 51 1008.1
20260507160518 50 314 1.7 7.0 0.00 0.00 0.00 50 1008.5
20260507160015 50 314 5.2 8.7 0.00 0.00 0.00 50 1008.6
20260507155510 49 303 2.6 6.1 0.00 0.00 0.00 50 1008.2
20260507155008 50 278 4.3 6.1 0.00 0.00 0.00 46 1008.2
20260507154504 49 323 3.5 5.2 0.00 0.00 0.00 50 1008.4
20260507154001 49 244 3.5 7.0 0.00 0.00 0.00 52 1008.6
20260507153458 50 8 2.6 5.2 0.00 0.00 0.00 51 1008.6
20260507152954 49 292 1.7 2.6 0.00 0.00 0.00 50 1008.8
20260507152450 49 282 3.5 6.1 0.00 0.00 0.00 56 1008.7
20260507151947 48 278 2.6 6.1 0.00 0.00 0.00 55 1008.6
20260507151443 48 290 2.6 6.1 0.00 0.00 0.00 51 1008.9
20260507150940 47 342 3.5 7.0 0.00 0.00 0.00 52 1008.8
20260507150437 46 314 4.3 7.0 0.00 0.00 0.00 55 1008.9
20260507145933 46 274 2.6 7.0 0.00 0.00 0.00 55 1008.6
20260507145429 47 299 5.2 7.8 0.00 0.00 0.00 53 1008.8
20260507144926 48 29 0.9 5.2 0.00 0.00 0.00 58 1008.6
20260507144423 47 355 0.9 3.5 0.00 0.00 0.00 62 1008.6
20260507143920 47 284 3.5 5.2 0.00 0.00 0.00 63 1008.6
20260507143418 46 333 2.6 3.5 0.00 0.00 0.00 64 1008.8
20260507142914 45 2 3.5 5.2 0.00 0.00 0.00 67 1008.7
20260507142410 44 276 4.3 6.1 0.00 0.00 0.00 62 1008.6
20260507141907 43 286 1.7 2.6 0.00 0.00 0.00 65 1008.7
20260507141403 44 344 2.6 5.2 0.00 0.00 0.00 66 1008.7
20260507140900 45 326 3.5 5.2 0.00 0.00 0.00 67 1009.0
20260507140357 44 23 0.9 2.6 0.00 0.00 0.00 70 1008.9
20260507135854 44 1 1.7 2.6 0.00 0.00 0.00 70 1009.0
20260507135351 44 314 2.6 5.2 0.00 0.00 0.00 66 1009.1
20260507134849 43 253 1.7 5.2 0.00 0.00 0.00 69 1009.0
20260507134344 42 265 2.6 6.1 0.00 0.00 0.00 68 1009.0
20260507133841 42 333 2.6 3.5 0.00 0.00 0.00 69 1008.9
20260507133336 43 16 1.7 6.1 0.00 0.00 0.00 73 1008.9
20260507132835 43 310 2.6 5.2 0.00 0.00 0.00 72 1008.9
20260507132331 44 275 1.7 6.1 0.00 0.00 0.00 72 1008.7
20260507131828 43 356 3.5 5.2 0.00 0.00 0.00 73 1008.7
20260507131325 43 259 1.7 3.5 0.00 0.00 0.00 73 1008.7
20260507130822 42 308 3.5 3.5 0.00 0.00 0.00 74 1008.7
20260507130319 42 259 1.7 2.6 0.00 0.00 0.00 80 1008.9
20260507125818 42 151 0.9 1.7 0.00 0.00 0.00 80 1008.5
20260507125315 42 296 1.7 3.5 0.00 0.00 0.00 78 1008.5
20260507124812 42 68 0.9 1.7 0.00 0.00 0.00 81 1008.7
20260507124308 42 130 0.9 1.7 0.00 0.00 0.00 80 1008.6
20260507123807 42 133 0.9 1.7 0.00 0.00 0.00 82 1008.7
20260507123304 42 351 1.7 3.5 0.00 0.00 0.00 81 1008.6
20260507122800 42 306 1.7 2.6 0.00 0.00 0.00 80 1008.6
20260507122255 42 12 0.9 1.7 0.00 0.00 0.00 82 1008.9
20260507121751 42 262 0.9 2.6 0.00 0.00 0.00 80 1008.7
20260507121247 42 106 0.9 1.7 0.00 0.00 0.00 83 1008.6
20260507120743 42 23 0.9 1.7 0.00 0.00 0.00 85 1008.7
20260507120241 42 306 3.5 3.5 0.00 0.00 0.00 85 1008.6
20260507115737 41 51 0.9 2.6 0.00 0.00 0.00 86 1008.7
20260507115233 41 251 1.7 2.6 0.00 0.00 0.00 89 1008.7
20260507114728 41 16 0.9 2.6 0.00 0.00 0.00 92 1008.4
20260507114226 41 325 1.7 3.5 0.00 0.00 0.00 95 1008.2
20260507113723 41 262 0.9 1.7 0.00 0.00 0.00 97 1008.1
20260507113220 41 68 0.9 0.9 0.00 0.00 0.00 98 1008.1
20260507112718 41 41 0.9 0.9 0.00 0.00 0.00 99 1008.0
20260507112215 41 39 0.0 0.0 0.00 0.00 0.00 99 1008.1
20260507111712 41 39 0.0 0.9 0.00 0.00 0.00 99 1008.1
20260507111209 41 40 0.0 0.9 0.00 0.00 0.00 99 1008.1
20260507110704 41 56 0.0 1.7 0.00 0.00 0.00 99 1008.4
20260507110202 41 18 0.9 1.7 0.00 0.00 0.00 99 1008.2
20260507105659 41 10 0.9 5.2 0.00 0.00 0.00 99 1008.0
20260507105154 41 127 0.0 0.9 0.00 0.00 0.00 99 1007.9
20260507104652 41 126 0.9 1.7 0.00 0.00 0.00 99 1008.0
20260507104148 41 125 0.9 1.7 0.00 0.00 0.00 99 1007.8
20260507103644 41 90 0.0 0.9 0.00 0.00 0.00 99 1007.7
20260507103141 41 90 0.0 0.9 0.00 0.00 0.00 99 1007.6
20260507102637 41 90 0.0 0.0 0.00 0.00 0.00 99 1007.5
20260507102133 41 90 0.0 0.0 0.00 0.00 0.00 99 1007.9
20260507101630 41 90 0.0 0.0 0.00 0.00 0.00 99 1007.8
20260507101126 41 90 0.0 0.9 0.00 0.00 0.00 99 1007.7
20260507100623 40 86 0.0 0.9 0.00 0.00 0.00 99 1007.7
20260507100121 40 86 0.0 0.9 0.00 0.00 0.00 99 1007.8
20260507095619 40 75 0.0 0.0 0.00 0.00 0.00 99 1007.5
20260507095115 40 75 0.0 0.0 0.00 0.00 0.00 99 1007.5
20260507094611 40 71 0.0 0.0 0.00 0.00 0.00 99 1007.8
20260507094108 40 63 0.0 0.0 0.00 0.00 0.00 99 1007.6
20260507093606 40 75 0.0 0.9 0.00 0.00 0.00 99 1007.6
20260507093105 40 71 0.0 0.9 0.00 0.00 0.00 99 1007.6
20260507092600 40 69 0.0 0.0 0.00 0.00 0.00 99 1007.7
20260507092057 40 69 0.0 0.0 0.00 0.00 0.00 99 1007.7
20260507091554 40 75 0.0 0.0 0.00 0.00 0.00 99 1007.6
20260507091050 40 76 0.0 0.9 0.00 0.00 0.00 99 1007.7
20260507090546 40 75 0.0 0.9 0.00 0.00 0.00 99 1007.7
20260507090043 40 83 0.0 0.9 0.00 0.00 0.00 99 1007.4
20260507085540 40 83 0.0 0.9 0.00 0.00 0.00 99 1007.7
20260507085037 40 65 0.9 0.9 0.00 0.00 0.00 99 1007.7
20260507084533 40 72 0.9 0.9 0.00 0.00 0.00 99 1007.5
20260507084031 40 120 0.9 1.7 0.00 0.00 0.00 99 1007.4
20260507083527 40 97 0.9 1.7 0.00 0.00 0.00 99 1007.8
20260507083024 40 113 0.0 1.7 0.00 0.00 0.00 99 1007.9
20260507082520 40 121 0.0 1.7 0.00 0.00 0.00 99 1007.8
20260507082016 40 108 0.0 1.7 0.00 0.00 0.00 99 1007.9
20260507081513 40 118 0.0 0.9 0.00 0.00 0.00 99 1008.0
20260507081010 40 107 0.0 0.9 0.00 0.00 0.00 99 1007.8
20260507080506 40 66 0.0 0.0 0.00 0.00 0.00 99 1008.1
20260507080001 40 66 0.0 0.0 0.00 0.00 0.00 99 1008.1
20260507075457 40 64 0.0 0.9 0.00 0.00 0.00 99 1008.2
20260507074954 40 73 0.0 0.9 0.00 0.00 0.00 99 1008.1
20260507074451 40 73 0.0 0.0 0.00 0.00 0.00 99 1008.4
20260507073949 39 73 0.0 0.0 0.00 0.00 0.00 99 1008.1
20260507073445 39 73 0.0 0.0 0.00 0.00 0.00 99 1008.4
20260507072942 39 73 0.0 0.9 0.00 0.00 0.00 99 1008.1
20260507072439 39 73 0.0 0.0 0.00 0.00 0.00 99 1008.1
20260507071937 39 73 0.0 0.0 0.00 0.00 0.00 99 1008.1
20260507071434 39 73 0.0 0.0 0.00 0.00 0.00 99 1007.8
20260507070930 39 73 0.0 0.9 0.00 0.00 0.00 99 1007.7
20260507070428 39 73 0.0 0.0 0.00 0.00 0.00 99 1007.7
20260507065924 39 73 0.0 0.0 0.00 0.00 0.00 99 1007.8
20260507065421 39 73 0.0 0.9 0.00 0.00 0.00 99 1007.5
20260507064913 39 73 0.0 0.0 0.00 0.00 0.00 99 1007.6
20260507064411 39 73 0.0 0.0 0.00 0.00 0.00 99 1007.6
20260507063909 39 73 0.0 0.0 0.00 0.00 0.00 99 1007.5
20260507063406 39 73 0.0 0.0 0.00 0.00 0.00 99 1007.6
20260507062902 39 73 0.0 0.0 0.00 0.00 0.00 99 1007.8
20260507062358 39 73 0.0 0.0 0.00 0.00 0.00 99 1007.8
20260507061856 39 73 0.0 0.0 0.00 0.00 0.00 99 1008.0
20260507061354 39 73 0.0 0.0 0.00 0.00 0.00 99 1007.8
20260507060853 39 73 0.0 0.0 0.00 0.00 0.00 99 1007.9
20260507060349 38 73 0.0 0.0 0.00 0.00 0.00 99 1007.8
20260507055846 38 73 0.0 0.0 0.00 0.00 0.00 99 1008.0
20260507055340 39 73 0.0 0.0 0.00 0.00 0.00 99 1007.9
20260507054838 39 73 0.0 0.0 0.00 0.00 0.00 99 1007.9
20260507054334 38 73 0.0 0.0 0.00 0.00 0.00 99 1007.9
20260507053831 38 73 0.0 0.0 0.00 0.00 0.00 99 1008.1
20260507053329 38 73 0.0 0.0 0.00 0.00 0.00 99 1008.1
20260507052827 38 73 0.0 0.0 0.00 0.00 0.00 99 1008.2
20260507052324 38 73 0.0 0.0 0.00 0.00 0.00 99 1008.2
20260507051822 39 73 0.0 0.0 0.00 0.00 0.00 99 1008.2
20260507051319 39 73 0.0 0.0 0.00 0.00 0.00 99 1008.1
20260507050816 39 73 0.0 0.0 0.00 0.00 0.00 99 1008.5
20260507050312 39 73 0.0 0.9 0.00 0.00 0.00 99 1008.6
20260507045809 39 73 0.0 0.0 0.00 0.00 0.00 99 1008.9
20260507045306 39 73 0.0 0.0 0.00 0.00 0.00 99 1008.9
20260507044802 39 73 0.0 0.0 0.00 0.00 0.00 99 1008.8
20260507044259 39 73 0.0 0.0 0.00 0.00 0.00 98 1008.6
20260507043755 39 73 0.0 0.0 0.00 0.00 0.00 98 1008.9
20260507043252 39 73 0.0 0.0 0.00 0.00 0.00 98 1008.9
20260507042748 39 73 0.0 0.0 0.00 0.00 0.00 98 1008.8
20260507042243 39 73 0.0 0.0 0.00 0.00 0.00 98 1008.8
20260507041741 40 73 0.0 0.0 0.00 0.00 0.00 98 1008.9
20260507041237 40 73 0.0 0.0 0.00 0.00 0.00 98 1008.8
20260507040735 40 73 0.0 0.0 0.00 0.00 0.00 98 1008.7
20260507040230 40 73 0.0 0.9 0.00 0.00 0.00 98 1009.0
20260507035727 40 73 0.0 0.0 0.00 0.85 0.85 98 1009.0
20260507035222 40 73 0.0 0.0 0.00 0.85 0.85 98 1008.8
20260507034720 40 73 0.0 0.0 0.00 0.85 0.85 98 1008.9
20260507034217 40 73 0.0 0.0 0.00 0.85 0.85 98 1009.1
20260507033715 40 73 0.0 0.0 0.00 0.85 0.85 98 1009.1
20260507033212 41 73 0.0 0.0 0.00 0.85 0.85 98 1008.8
20260507032710 41 73 0.0 0.0 0.00 0.85 0.85 98 1008.8
20260507032205 41 73 0.0 0.0 0.00 0.85 0.85 98 1009.0
20260507031702 41 73 0.0 0.0 0.00 0.85 0.85 98 1009.0
20260507031159 41 73 0.0 0.0 0.00 0.85 0.85 98 1009.0
20260507030656 42 73 0.0 0.0 0.00 0.85 0.85 98 1009.3
20260507030154 42 73 0.0 0.0 0.00 0.85 0.85 98 1009.2
20260507025651 42 73 0.0 0.0 0.00 0.85 0.85 98 1009.1
20260507025147 42 73 0.0 0.0 0.00 0.85 0.85 98 1009.2
20260507024646 42 73 0.0 0.0 0.00 0.85 0.85 98 1009.5
20260507024142 42 73 0.0 0.0 0.00 0.85 0.85 98 1009.3
20260507023638 42 73 0.0 0.0 0.00 0.85 0.85 98 1009.1
20260507023136 42 73 0.0 0.0 0.00 0.85 0.85 98 1009.3
20260507022632 42 73 0.0 0.0 0.00 0.85 0.85 98 1009.1
20260507022127 42 73 0.0 0.0 0.00 0.85 0.85 98 1009.1
20260507021624 42 73 0.0 0.0 0.00 0.85 0.85 98 1009.2
20260507021120 42 73 0.0 0.0 0.00 0.85 0.85 98 1009.4
20260507020619 42 74 0.0 0.0 0.00 0.85 0.85 98 1008.8
20260507020114 42 74 0.0 0.0 0.00 0.85 0.85 98 1009.1
20260507015613 42 74 0.0 0.0 0.00 0.85 0.85 98 1009.3
20260507015110 42 74 0.0 0.0 0.00 0.85 0.85 98 1009.3
20260507014606 42 74 0.0 0.0 0.00 0.85 0.85 98 1009.3
20260507014102 42 73 0.0 0.9 0.00 0.85 0.85 98 1009.5
20260507013559 42 73 0.0 0.0 0.00 0.85 0.85 98 1009.1
20260507013056 42 73 0.0 0.0 0.00 0.85 0.85 98 1009.4
20260507012554 42 73 0.0 0.0 0.00 0.85 0.85 98 1009.3
20260507012049 42 73 0.0 0.0 0.00 0.85 0.85 98 1009.6
20260507011547 42 73 0.0 0.9 0.00 0.85 0.85 98 1009.7
20260507011038 42 73 0.0 0.0 0.00 0.85 0.85 98 1009.5
20260507010538 42 73 0.0 0.0 0.00 0.85 0.85 98 1009.2
20260507010034 42 73 0.0 0.9 0.00 0.85 0.85 98 1009.2
20260507005532 42 73 0.0 0.9 0.00 0.85 0.85 98 1009.3
20260507005028 42 73 0.0 0.9 0.00 0.85 0.85 98 1009.1
20260507004525 42 73 0.9 0.9 0.00 0.85 0.85 98 1009.0
20260507004023 42 73 0.9 0.9 0.00 0.85 0.85 98 1009.0
20260507003518 42 74 0.0 0.9 0.00 0.85 0.85 98 1008.9
20260507003013 42 74 0.0 0.9 0.00 0.85 0.85 98 1009.1
20260507002510 42 75 0.0 0.0 0.00 0.85 0.85 98 1008.9
20260507002006 42 75 0.0 0.9 0.00 0.85 0.85 98 1008.8
20260507001503 42 73 0.0 0.0 0.00 0.85 0.85 98 1008.6
20260507001000 42 73 0.0 0.0 0.00 0.85 0.85 98 1008.6
20260507000456 42 73 0.0 0.0 0.00 0.85 0.85 98 1008.5
20260506235952 42 73 0.0 0.0 0.07 0.85 0.85 98 1008.2
20260506235450 42 73 0.0 0.0 0.07 0.85 0.85 98 1008.1
20260506234945 42 73 0.0 0.0 0.00 0.84 0.84 98 1007.9
20260506234443 42 73 0.0 0.0 0.00 0.84 0.84 98 1007.9
20260506233940 42 73 0.0 0.0 0.00 0.84 0.84 98 1007.9
20260506233436 42 73 0.0 0.0 0.00 0.84 0.84 98 1008.0
20260506232933 42 73 0.0 0.0 0.00 0.84 0.84 98 1007.7
20260506232429 42 73 0.0 0.9 0.00 0.84 0.84 98 1008.1
20260506231925 42 73 0.0 0.9 0.00 0.84 0.84 98 1007.7
20260506231423 42 74 0.0 0.0 0.00 0.84 0.84 98 1007.7
20260506230920 42 73 0.0 0.0 0.05 0.84 0.84 98 1007.6
20260506230416 42 73 0.0 0.0 0.00 0.83 0.83 98 1007.7
20260506225913 42 73 0.0 0.9 0.00 0.83 0.83 98 1007.7
20260506225411 42 74 0.0 0.9 0.00 0.83 0.83 98 1008.0
20260506224907 42 53 0.9 1.7 0.00 0.83 0.83 98 1007.9
20260506224405 42 39 0.0 0.0 0.00 0.83 0.83 98 1008.0
20260506223900 42 38 0.0 0.9 0.00 0.83 0.83 98 1008.0
20260506223356 42 44 0.0 0.9 0.00 0.83 0.83 98 1007.7
20260506222853 42 44 0.0 0.9 0.00 0.83 0.83 97 1007.8
20260506222349 42 44 0.9 0.9 0.00 0.83 0.83 97 1007.7
20260506221847 42 46 0.0 0.9 0.00 0.83 0.83 97 1008.0
20260506221344 42 46 0.0 0.9 0.00 0.83 0.83 97 1007.9
20260506220842 42 46 0.9 0.9 0.00 0.83 0.83 97 1007.9
20260506220337 42 46 0.0 0.9 0.00 0.83 0.83 97 1008.1
20260506215834 43 46 0.0 0.9 0.00 0.83 0.83 97 1008.0
20260506215330 43 47 0.0 0.0 0.00 0.83 0.83 97 1007.8
20260506214826 43 65 0.0 0.9 0.00 0.83 0.83 97 1007.8
20260506214323 43 55 0.0 1.7 0.00 0.83 0.83 97 1007.7
20260506213821 43 62 0.0 0.0 0.00 0.83 0.83 97 1007.8
20260506213318 43 48 0.0 0.9 0.00 0.83 0.83 97 1007.7
20260506212815 43 48 0.0 0.9 0.00 0.83 0.83 97 1007.6
20260506212311 43 58 0.9 0.9 0.00 0.83 0.83 97 1007.2
20260506211806 43 44 0.9 1.7 0.00 0.83 0.83 97 1007.7
20260506211302 43 69 0.9 0.9 0.00 0.83 0.83 97 1007.5
20260506210800 43 70 0.9 1.7 0.07 0.83 0.83 97 1007.6
20260506210256 43 67 0.0 0.0 0.07 0.83 0.83 97 1007.6
20260506205754 43 69 0.9 0.9 0.00 0.82 0.82 97 1007.7
20260506205249 43 55 0.0 0.9 0.05 0.82 0.82 97 1007.8
20260506204746 43 55 0.0 0.9 0.05 0.82 0.82 97 1007.7
20260506204244 43 57 0.9 0.9 0.07 0.81 0.81 97 1007.6
20260506203742 43 62 0.0 0.9 0.07 0.81 0.81 97 1007.7
20260506203238 43 49 0.0 0.9 0.07 0.80 0.80 97 1007.6
20260506202736 43 48 0.0 0.9 0.07 0.80 0.80 97 1007.7
20260506202232 43 48 0.0 0.9 0.05 0.79 0.79 97 1007.6
20260506201729 43 86 0.0 0.9 0.05 0.79 0.79 97 1007.6
20260506201226 43 86 0.0 0.9 0.00 0.78 0.78 97 1007.5
20260506200723 43 87 0.0 0.9 0.07 0.78 0.78 97 1007.5
20260506200220 43 87 0.0 0.9 0.07 0.78 0.78 97 1007.7
20260506195716 43 87 0.0 0.9 0.00 0.77 0.77 97 1007.7
20260506195212 43 88 0.9 0.9 0.00 0.77 0.77 96 1007.6
20260506194710 43 91 0.9 0.9 0.00 0.77 0.77 96 1007.5
20260506194206 44 83 0.9 1.7 0.00 0.77 0.77 96 1007.4
20260506193704 44 36 0.0 0.9 0.00 0.77 0.77 97 1007.2
20260506193201 44 36 0.9 0.9 0.00 0.77 0.77 97 1007.2
20260506192657 44 33 0.9 1.7 0.05 0.77 0.77 97 1007.2
20260506192153 44 49 0.9 1.7 0.05 0.77 0.77 97 1007.1
20260506191651 44 69 0.0 0.9 0.00 0.76 0.76 97 1007.1
20260506191147 43 45 0.9 0.9 0.00 0.76 0.76 97 1007.1
20260506190644 43 46 0.0 0.9 0.00 0.76 0.76 97 1007.1
20260506190141 43 46 0.0 0.9 0.07 0.76 0.76 97 1007.1
20260506185638 43 56 0.9 0.9 0.07 0.76 0.76 97 1007.3
20260506185134 43 57 0.0 0.9 0.00 0.75 0.75 97 1007.3
20260506184632 43 57 0.0 0.0 0.05 0.75 0.75 97 1007.5
20260506184129 42 57 0.0 0.9 0.05 0.75 0.75 97 1007.8
20260506183625 42 57 0.0 0.9 0.00 0.74 0.74 97 1007.8
20260506183121 42 56 0.0 0.9 0.00 0.74 0.74 97 1007.7